Lapse_Rate
6.7 6.8 6.7 7.0 7.2 7.3 7.4 7.4 7.5 7.3 7.3 7.4 7.2 7.2 6.8 7.0 7.1 6.9 6.7 6.7 6.8 6.8 6.9 7.1 7.3 7.2 7.1 7.1 7.0 6.8 6.8 6.7 6.6 6.5 6.4 6.5 6.4 6.5 6.7 6.6 6.4 6.4 6.4 6.4
6.9 6.9 6.9 6.9 7.2 7.3 7.5 7.6 7.8 7.6 7.5 7.4 7.4 7.3 7.1 7.4 7.2 7.1 6.9 6.7 6.7 6.9 7.1 7.6 7.6 7.6 7.6 7.6 7.3 7.2 7.1 7.1 6.9 6.9 6.7 6.7 6.7 6.7 6.7 7.0 6.9 6.9 6.7 6.6
6.6 7.1 7.2 7.4 7.4 7.7 7.8 7.9 8.1 7.6 7.6 7.5 7.5 7.7 7.6 7.8 7.6 7.7 7.4 7.0 6.8 6.8 7.3 7.6 7.9 8.1 8.3 8.3 8.1 7.8 7.8 7.6 7.4 7.3 7.4 7.4 7.5 7.3 7.2 7.3 7.2 7.1 6.9 6.7
7.0 7.4 7.5 7.5 7.9 8.1 8.1 8.0 8.3 7.9 7.6 7.7 7.7 8.3 8.1 8.1 8.0 8.0 8.0 7.8 7.6 7.5 7.6 8.0 8.3 8.6 8.6 8.6 8.5 8.4 8.2 8.1 8.0 7.6 7.7 7.8 7.9 7.8 7.4 7.1 6.7 6.4 6.2 6.2
7.3 7.6 7.8 8.0 8.0 7.9 7.9 8.3 8.5 8.2 7.9 7.7 7.7 7.9 8.3 8.2 8.2 8.5 8.3 8.1 8.2 8.4 8.4 8.5 8.7 8.6 8.4 8.6 8.5 8.4 8.5 8.3 8.3 8.2 8.0 8.1 8.2 8.2 7.8 7.6 7.4 7.0 6.9 6.8
7.4 7.2 7.9 7.9 7.8 7.9 7.8 8.1 8.2 8.1 7.9 8.2 7.7 7.9 8.7 8.4 8.2 8.5 8.5 8.3 8.3 8.5 8.6 8.6 8.4 8.3 8.3 8.6 8.6 8.4 8.4 8.2 7.5 7.6 7.8 7.8 7.8 7.8 7.7 7.8 7.7 7.6 7.4 7.4
7.9 8.0 7.9 7.9 7.9 8.2 8.2 8.0 8.3 8.4 8.5 8.5 7.8 7.7 8.3 8.4 8.4 8.6 8.7 8.7 8.3 8.8 8.9 8.9 8.8 8.7 8.5 8.4 8.4 8.2 7.8 8.0 8.0 7.8 7.8 7.8 7.6 7.5 7.4 7.4 7.4 7.3 7.1 7.0
7.7 8.3 8.3 8.4 8.5 8.7 8.5 8.3 8.7 8.3 8.6 8.5 7.6 7.9 8.1 8.4 8.7 8.8 8.8 9.0 8.9 9.0 9.1 9.1 9.1 9.0 9.0 9.1 9.0 8.7 8.5 8.3 8.1 8.2 7.9 7.7 7.6 7.6 7.5 7.2 6.8 6.6 6.6 6.7
7.7 8.2 8.4 8.4 8.4 8.5 8.9 8.5 8.5 8.4 7.6 8.1 7.7 8.1 8.4 8.6 8.8 8.9 8.9 9.0 9.1 9.3 9.3 9.3 9.4 9.3 9.2 9.2 9.1 9.0 8.9 8.7 8.6 8.4 8.2 8.3 8.1 7.7 7.3 7.2 7.2 7.1 7.0 6.9
8.0 7.9 8.3 8.6 8.9 8.8 9.0 8.9 8.8 8.7 8.2 8.5 8.0 8.1 8.7 8.7 8.9 9.0 9.0 9.2 9.2 8.9 9.3 9.3 9.1 9.0 9.0 8.9 9.0 8.9 8.7 8.6 8.5 8.3 8.0 7.7 7.6 7.2 6.9 6.8 6.6 6.8 6.8 6.6
8.0 7.8 8.5 8.7 8.9 9.3 9.2 9.1 8.9 8.7 8.4 9.1 9.1 8.9 8.8 8.8 8.8 8.9 9.0 9.1 9.0 9.0 8.8 8.8 8.8 8.8 8.7 8.6 8.4 8.3 8.2 7.9 7.6 7.4 7.2 7.0 6.4 6.2 6.2 6.1 6.2 6.3 6.2 5.9
7.9 7.9 8.3 8.8 8.9 9.1 9.1 9.2 9.1 9.1 8.3 8.3 8.0 8.6 8.9 9.0 8.9 8.8 8.8 8.9 8.7 8.6 8.6 8.6 8.5 8.3 8.2 8.2 7.9 7.8 7.6 7.4 7.2 7.0 6.8 6.5 6.3 6.0 5.9 5.9 5.7 5.7 5.7 5.8
7.5 8.0 8.3 8.8 9.0 8.9 9.0 9.2 9.3 9.3 9.2 8.6 9.0 8.6 9.1 9.1 8.7 8.4 8.4 8.4 8.4 8.5 8.4 8.1 8.0 8.0 8.0 8.0 7.9 7.7 7.5 7.3 6.8 6.3 5.8 5.5 5.3 5.3 5.4 5.5 5.6 5.6 5.7 5.9
7.7 8.3 8.7 8.8 8.6 8.7 8.8 9.0 9.2 9.2 9.0 8.9 9.0 9.2 9.2 8.8 8.2 8.0 7.9 8.1 8.3 8.2 7.9 7.9 7.9 7.9 7.9 7.8 7.7 7.2 6.5 6.3 5.8 5.3 5.3 5.4 5.3 5.3 5.4 5.4 5.4 5.5 5.8 6.0
7.6 8.1 8.6 8.6 8.6 8.9 8.9 9.0 9.1 9.1 9.1 9.1 9.3 9.2 9.1 8.6 7.6 7.6 7.9 8.0 7.8 7.8 7.7 7.7 7.9 7.8 7.6 7.5 6.9 6.3 6.2 5.9 5.8 5.6 5.4 5.4 5.4 5.3 5.3 5.4 5.5 5.7 5.7 5.9
7.5 8.5 8.4 8.5 8.8 9.0 8.9 9.0 9.1 9.1 9.1 9.1 8.9 8.8 8.5 8.0 7.6 7.6 7.7 7.6 7.5 7.6 7.6 7.6 7.4 7.2 7.0 6.7 6.4 6.3 5.7 5.8 5.6 5.4 5.3 5.3 5.4 5.5 5.7 5.7 5.6 5.5 5.5 5.5
8.0 8.0 8.1 8.5 8.8 9.1 8.9 9.0 8.9 8.8 8.9 8.6 8.5 8.5 8.4 8.1 7.6 7.4 7.3 7.3 7.4 7.5 7.4 7.1 7.0 6.7 6.5 6.2 5.9 5.6 5.5 5.3 5.2 5.2 5.3 5.3 5.2 5.2 5.4 5.6 5.7 5.7 5.4 5.4
7.6 7.4 7.9 8.3 8.4 8.6 8.9 9.0 8.9 8.8 8.5 8.5 8.5 8.4 8.1 7.7 7.6 7.4 7.2 7.0 7.1 7.0 6.9 6.8 6.5 6.2 5.8 5.6 5.4 5.2 5.0 5.0 5.0 5.1 5.4 5.5 5.5 5.5 5.3 5.4 5.7 5.7 5.5 5.5
8.3 8.3 8.4 8.3 8.4 8.6 8.6 8.6 8.2 8.4 8.4 8.2 8.2 8.2 8.0 7.8 7.4 7.2 7.1 7.0 7.0 6.8 6.6 6.4 6.0 5.7 5.3 5.2 5.0 4.8 5.0 5.2 5.4 5.5 5.7 5.7 5.7 5.8 5.5 5.5 5.7 5.9 5.7 5.9
8.4 8.4 8.3 8.4 8.3 8.3 8.8 8.9 8.5 8.3 8.1 8.3 8.3 8.1 7.8 7.7 7.4 7.3 7.1 6.8 6.5 6.3 6.1 5.7 5.5 5.2 5.0 4.7 4.7 4.9 5.3 5.6 5.9 5.8 5.7 5.7 5.5 5.4 5.5 5.7 5.7 5.9 6.0 6.1
8.5 8.5 8.4 8.7 8.5 8.5 8.8 8.7 8.5 8.0 8.2 8.2 8.1 8.0 7.7 7.5 7.2 6.9 6.6 6.4 6.3 5.9 5.6 5.4 5.1 4.8 4.6 4.7 4.9 5.3 5.5 5.9 6.0 5.9 5.7 5.7 5.6 5.4 5.6 5.7 5.7 5.9 6.3 6.3
8.8 8.9 8.8 8.9 8.7 8.7 8.6 8.4 8.3 8.3 8.2 7.9 7.8 7.7 7.5 7.3 6.9 6.6 6.4 6.3 5.9 5.6 5.4 5.0 4.7 4.6 4.7 5.0 5.3 5.6 5.7 5.9 5.9 5.9 5.7 5.7 5.7 5.5 5.5 5.8 5.8 5.9 5.8 5.9
8.5 8.7 8.9 8.9 8.8 8.7 8.5 8.4 8.3 8.3 8.1 7.7 7.5 7.2 6.8 6.7 6.6 6.4 6.2 6.0 5.7 5.4 4.9 4.7 4.7 4.8 5.2 5.5 5.6 5.7 5.8 5.8 6.0 5.9 5.7 5.7 5.7 5.6 5.7 5.9 6.0 6.0 5.8 5.7
8.1 8.3 8.5 8.5 8.5 8.5 8.4 8.2 8.1 7.9 7.7 7.6 7.2 6.9 6.7 6.6 6.5 6.3 6.1 5.7 5.2 4.9 4.8 4.9 4.9 5.4 5.6 5.7 5.7 5.6 5.7 5.7 5.8 5.7 5.7 5.7 5.7 5.9 6.0 6.0 5.9 5.8 5.7 5.8
8.4 8.4 8.4 8.3 8.4 8.3 8.2 7.9 7.7 7.5 7.2 6.9 6.6 6.6 6.5 6.4 6.2 6.0 5.5 5.1 5.0 4.9 4.9 5.1 5.4 5.5 5.6 5.6 5.5 5.5 5.6 5.6 5.6 5.5 5.5 5.7 5.8 5.9 6.2 6.3 6.1 5.8 5.7 5.5
8.6 8.6 8.5 8.3 8.2 7.9 7.9 7.7 7.3 7.0 6.8 6.5 6.4 6.3 6.2 6.1 6.0 5.6 5.3 5.1 4.9 4.9 5.1 5.2 5.4 5.4 5.3 5.4 5.4 5.5 5.3 5.4 5.3 5.2 5.4 5.8 6.1 6.3 6.3 6.5 6.5 6.0 5.8 5.5
Wind_Speed
2 1 3 5 3 7 6 1 1 3 4 3 7 7 5 13 13 13 13 14 16 17 18 16 17 18 16 16 16 16 15 15 11 10 9 10 11 10 10 11 17 16 16 15
1 6 3 5 8 3 1 2 3 3 4 8 2 2 3 11 14 15 14 15 16 17 16 17 16 17 18 19 18 16 17 15 13 11 10 8 7 9 10 9 14 18 19 18
5 1 3 7 5 3 3 5 4 2 4 1 2 2 3 5 10 8 14 14 16 17 17 17 16 18 17 18 17 16 16 16 15 14 10 8 8 6 8 10 11 13 19 20
5 2 5 6 5 4 3 6 3 7 6 1 4 2 3 5 6 11 13 14 17 18 18 18 17 16 16 18 15 16 15 15 15 14 13 15 12 12 12 12 11 11 16 16
2 3 3 5 4 7 2 1 9 5 4 2 2 3 2 0 7 12 11 14 16 17 18 19 20 17 16 14 15 14 13 14 14 14 15 12 13 12 11 10 11 10 9 12
5 2 4 5 4 11 10 6 8 5 2 2 1 3 2 3 5 6 11 13 15 14 16 17 16 13 14 12 13 13 13 13 11 12 15 16 15 14 12 11 11 9 8 8
4 4 2 6 6 6 8 5 2 3 3 1 4 4 2 5 8 11 12 8 9 8 11 12 11 8 9 9 10 10 11 12 13 14 15 16 17 15 15 13 12 13 11 11
3 4 7 9 7 5 11 4 3 1 0 3 3 4 2 3 7 5 3 7 6 6 3 2 1 4 6 7 7 8 10 11 11 12 13 12 14 12 12 13 12 12 12 10
4 4 2 7 3 1 4 3 3 5 2 3 0 2 6 1 9 12 11 12 14 13 13 12 12 12 12 10 9 6 3 4 6 9 11 12 12 14 13 14 12 11 10 8
5 4 3 2 3 5 3 8 3 1 4 3 2 3 2 3 10 9 11 13 13 15 16 15 16 16 14 13 12 13 11 9 7 4 5 7 10 12 12 11 12 12 12 12
6 3 1 2 5 7 4 4 5 4 2 2 3 3 1 7 5 3 7 10 12 13 13 14 14 14 13 14 14 12 12 12 11 10 9 6 5 4 4 6 9 10 12 13
4 3 4 1 1 2 1 3 5 3 4 1 2 1 3 1 5 7 7 8 11 13 13 13 13 14 13 13 12 11 9 8 6 5 4 2 0 2 5 8 11 12 15 15
8 4 3 5 5 4 1 3 3 6 3 5 2 2 4 6 9 7 8 9 10 12 15 14 14 13 12 11 9 8 6 7 6 6 6 6 6 8 8 10 11 11 12 14
8 4 2 1 1 1 2 4 6 1 3 6 5 6 9 8 8 7 8 9 10 11 11 11 10 10 9 9 8 8 6 6 6 6 6 6 7 8 8 9 9 10 11 12
2 2 1 4 5 3 1 1 6 4 0 4 2 9 15 11 8 7 7 7 8 8 9 8 9 8 7 7 5 5 6 5 7 8 9 9 9 9 9 10 10 10 10 10
1 1 5 3 2 5 3 2 6 4 5 3 5 5 7 7 6 7 7 6 6 6 6 6 6 5 4 4 5 6 7 8 9 11 12 12 12 12 12 12 11 10 11 11
2 4 1 3 5 2 2 1 1 2 2 5 5 4 12 8 7 7 7 5 6 5 4 3 3 3 5 7 8 10 10 10 10 12 13 13 14 14 14 14 13 13 12 12
9 5 3 3 1 5 2 1 6 2 3 4 4 13 14 11 6 6 4 6 6 5 3 1 3 5 6 9 10 11 11 11 11 12 13 13 14 14 14 14 14 13 10 13
3 6 3 4 7 2 3 4 5 2 2 6 10 12 10 9 7 3 5 4 5 3 0 3 5 6 7 9 9 10 11 11 11 12 13 14 14 15 14 14 14 14 12 13
6 3 4 4 3 5 1 2 3 3 3 10 11 14 12 9 4 3 8 7 5 2 2 4 6 6 7 8 9 10 11 12 12 13 13 13 13 14 14 15 15 14 13 14
5 3 5 3 2 1 1 1 2 3 3 10 11 11 11 5 2 5 9 6 4 3 4 5 5 5 6 8 10 12 12 12 14 14 14 14 14 14 13 14 13 14 14 14
1 4 3 2 2 3 1 3 3 3 6 9 9 7 7 6 7 7 6 5 4 5 4 5 5 7 8 10 10 12 12 14 14 14 13 13 14 12 10 11 11 10 10 11
1 1 1 2 2 1 1 2 2 6 10 6 10 8 8 8 6 6 5 5 5 4 4 5 7 9 9 10 10 12 13 14 14 13 12 12 12 11 10 11 12 9 9 8
2 2 1 4 1 5 5 4 5 7 9 9 8 9 7 7 7 6 6 5 3 3 4 6 7 9 10 11 12 11 13 14 14 14 14 12 11 13 11 10 9 8 9 9
2 6 4 2 2 2 4 4 7 9 10 10 8 6 7 8 6 6 5 3 2 4 4 5 7 8 10 10 12 12 13 14 14 13 12 13 11 12 10 10 9 10 11 11
6 6 5 4 11 4 10 10 9 10 9 9 9 7 6 5 7 6 4 3 3 4 6 7 8 8 8 10 10 12 13 13 13 12 10 10 11 9 8 8 9 13 10 15
Wind_Direction
17 270 239 272 192 106 106 116 313 255 226 280 240 244 193 187 204 207 209 210 214 220 231 232 231 232 234 232 227 220 217 217 206 211 218 228 232 234 236 239 245 245 243 247
160 255 219 75 183 204 164 278 271 275 339 207 214 232 210 185 219 214 212 216 225 231 236 236 234 234 228 228 223 219 220 214 210 211 216 228 227 239 246 246 246 242 240 236
223 86 189 211 202 218 239 236 207 177 108 167 222 182 205 215 230 225 224 224 229 234 237 239 234 231 230 231 222 219 217 214 212 214 211 220 231 239 237 235 237 232 230 232
248 247 220 206 243 205 284 224 219 162 188 144 328 84 242 227 248 237 233 226 231 233 234 241 240 234 228 229 224 223 217 214 214 205 210 213 220 229 234 236 236 231 225 227
18 301 257 239 240 181 323 81 155 135 137 214 170 245 145 237 236 242 238 234 236 234 232 235 235 233 229 227 219 217 216 219 215 203 215 222 235 241 249 244 245 243 237 229
276 247 249 248 275 214 151 101 92 98 186 257 6 251 124 196 244 249 237 239 246 233 237 241 245 241 235 224 220 217 208 214 210 209 217 223 230 233 243 238 240 237 233 228
323 238 252 227 253 184 216 205 153 171 181 30 338 208 295 312 311 278 288 284 294 275 251 251 260 263 268 248 234 224 217 217 213 215 217 220 228 233 237 237 238 236 234 226
284 214 192 178 228 202 187 230 229 250 223 69 146 210 162 345 335 344 350 28 33 30 350 347 311 258 262 267 247 217 235 233 215 225 232 232 235 238 237 238 240 243 243 237
186 267 267 229 250 214 161 195 30 104 50 254 196 239 255 253 54 33 48 60 51 58 60 63 66 59 49 38 32 14 339 282 258 245 242 239 238 240 244 245 244 246 245 217
186 264 204 157 141 53 258 132 141 83 168 208 173 279 207 354 357 17 57 67 62 63 64 66 67 63 59 57 57 56 52 49 38 9 309 285 273 261 260 261 255 250 245 238
152 227 153 239 201 175 140 167 69 105 311 215 186 212 195 293 337 63 64 68 73 74 74 73 73 71 70 67 59 55 53 46 34 27 25 15 354 328 288 263 264 263 264 260
196 212 252 230 83 1 84 150 171 209 177 67 304 165 350 0 117 111 90 74 72 76 81 80 76 73 71 69 65 58 52 49 43 40 37 51 73 303 312 296 288 287 285 282
175 237 241 150 147 110 197 132 123 109 137 175 222 126 112 131 116 103 102 87 79 72 65 66 66 64 64 63 60 54 48 35 20 4 352 336 313 303 309 310 304 302 293 290
156 214 178 88 9 60 220 149 156 288 179 156 227 165 178 157 128 117 111 90 78 75 77 80 77 72 65 57 46 32 22 9 4 353 341 324 313 300 295 296 296 292 291 289
210 213 97 287 262 201 51 106 179 209 50 238 43 199 178 164 149 130 115 103 100 94 88 81 75 62 52 39 18 2 4 359 351 344 334 326 312 301 295 291 293 298 298 294
149 352 58 280 14 134 118 103 113 119 141 94 149 175 170 145 137 148 146 141 123 111 103 90 80 59 37 1 350 342 348 356 349 338 327 320 318 316 309 307 306 302 299 297
134 127 165 324 18 346 264 336 320 103 182 155 179 158 150 150 167 168 162 170 152 138 135 120 62 9 350 4 354 338 333 328 333 331 324 324 327 321 313 305 300 296 294 294
125 155 199 252 222 215 67 279 224 222 176 178 136 154 160 158 146 156 176 186 169 177 181 215 323 341 355 351 348 339 331 325 329 326 326 327 323 317 316 314 309 304 303 301
130 144 140 198 205 279 193 183 152 195 134 173 153 144 133 127 131 160 180 177 189 176 53 343 345 335 335 348 346 335 323 326 328 329 326 323 324 319 316 312 314 312 306 304
113 64 218 173 173 196 99 129 197 172 256 165 163 157 153 152 192 175 175 186 159 110 23 351 359 354 5 351 335 326 326 327 335 336 329 326 328 324 319 318 316 310 305 300
136 106 199 174 157 163 128 134 216 220 26 153 154 154 156 178 26 114 156 141 106 76 51 38 32 5 359 349 339 330 331 341 337 333 330 330 333 327 324 323 319 314 315 314
201 160 154 150 148 197 134 161 233 90 123 133 134 143 155 143 141 130 131 120 107 100 78 36 359 354 359 357 345 340 343 340 337 338 338 336 334 334 334 324 313 313 312 310
261 313 190 223 77 318 332 323 140 152 136 140 136 152 149 132 138 150 144 130 109 79 46 14 358 342 350 355 354 343 343 339 339 338 336 335 340 335 324 316 312 318 320 312
147 241 121 187 124 82 124 143 137 134 126 139 141 141 151 159 155 138 132 132 117 53 20 358 345 351 350 354 350 347 340 340 341 338 339 343 339 331 333 331 327 319 321 322
114 165 145 90 176 162 186 169 141 122 127 129 131 146 156 153 150 150 155 155 80 31 9 358 358 357 356 351 349 347 343 341 337 341 336 342 342 338 332 335 332 325 331 346
186 172 198 236 185 165 175 165 157 146 149 143 137 128 134 155 159 167 161 110 56 26 9 7 11 6 9 352 351 350 348 343 338 335 340 338 342 339 338 336 334 339 350 341